This is the latest recevied weather packets stored in our database for station/object EA3KZ-1. If no packets are shown the sender has not sent any weather packets the latest 10 day(s).
| Time | Temp. | Humidity | Pressure | Rain* | Wind** | Luminosity | Snow |
|---|---|---|---|---|---|---|---|
| 1787735156 | 23.89° C | 74% | 1010.4 hPa | 0 mm | - | - | - |
| 1787734553 | 23.89° C | 75% | 1010.8 hPa | 0 mm | - | - | - |
| 1787733951 | 24.44° C | 71% | 1011 hPa | 0 mm | - | - | - |
| 1787733348 | 25° C | 65% | 1011.4 hPa | 0 mm | - | - | - |
| 1787732746 | 25° C | 59% | 1010.4 hPa | 0 mm | - | - | - |
| 1787732143 | 24.44° C | 61% | 1009.3 hPa | 0 mm | - | - | - |
| 1787731541 | 24.44° C | 63% | 1009.3 hPa | 0 mm | - | - | - |
| 1787730938 | 23.89° C | 62% | 1010 hPa | 0 mm | - | - | - |
| 1787730336 | 24.44° C | 63% | 1010.5 hPa | 0 mm | - | - | - |
| 1787729733 | 23.89° C | 68% | 1010 hPa | 0 mm | - | - | - |
| 1787729130 | 23.89° C | 70% | 1010.3 hPa | 0 mm | - | - | - |
| 1787728528 | 23.33° C | 76% | 1009.6 hPa | 0 mm | - | - | - |
| 1787727925 | 23.89° C | 77% | 1010.1 hPa | 0 mm | - | - | - |
| 1787727323 | 23.33° C | 76% | 1010.4 hPa | 0 mm | - | - | - |
| 1787726720 | 23.33° C | 77% | 1010.9 hPa | 0 mm | - | - | - |
| 1787726117 | 23.33° C | 78% | 1011.8 hPa | 0 mm | - | - | - |
| 1787725515 | 22.78° C | 79% | 1011.9 hPa | 0 mm | - | - | - |
| 1787724972 | 22.78° C | 80% | 1011.6 hPa | 0 mm | - | - | - |
| 1787724370 | 22.22° C | 79% | 1012.2 hPa | 0 mm | - | - | - |
| 1787723767 | 22.22° C | 80% | 1011.8 hPa | 0 mm | - | - | - |
| 1787723164 | 22.78° C | 80% | 1011.1 hPa | 0 mm | - | - | - |
| 1787722562 | 22.78° C | 81% | 1010.8 hPa | 0 mm | - | - | - |
| 1787721959 | 22.78° C | 80% | 1011.1 hPa | 0 mm | - | - | - |
| 1787721357 | 22.78° C | 79% | 1010.5 hPa | 0 mm | - | - | - |
| 1787720754 | 22.78° C | 77% | 1011.2 hPa | 0 mm | - | - | - |
* Rain latest hour (hover to see other rain measurements)
** Current wind speed in m/s (hover to see current wind gust speed)